www.pogodaiklimat.ru

Погода и климат >> Архив погоды >> Китай >> Хэйлунцзян >> Харбин


АРХИВ ПОГОДЫ в Харбине

Время (UTC), дата Ветер
(напр.,м/с)
 
Видим.   Явления Облачность Т
(С)
Тd
(С)
f
(%)
Тe
(С)
Тes
(С)
Комфортность P
(гПа)
Po
(гПа)
Тmin
(С)
Tmax
(С)
R
(мм)
R24
(мм)
S
(см)
09 16.02 З 3 17 км ясно -4.0 -21.1 25 -8 -8 по сезону 1019.7 1001.4
12 16.02 З 4 н/о мгла ясно -6.9 -19.5 36 -13 -13 по сезону 1019.6 1003.9
15 16.02 З 5 25 км н/о -8.0 -18.9 41 -15 -15 по сезону 1018.5 999.9
18 16.02 З 3 7000 м н/о -11.0 -19.2 51 -17 -17 по сезону 1018.5 1003.1 -1.9
21 16.02 З 3 9000 м н/о -12.7 -19.2 58 -19 -19 по сезону 1019.0 1000.1
00 17.02 З 3 8000 м ясно -10.7 -18.6 52 -17 -15 по сезону 1020.0 1004.4
03 17.02 ЮЗ 3 17 км ясно -1.8 -16.3 32 -6 -0 тепло 1018.9 1000.7
06 17.02 З 5 30 км ясно +2.2 -15.8 25 -2 -0 тепло 1017.6 1002.3 -13.6
09 17.02 З 1 19 км ясно 0.0 -16.3 28 -1 -1 тепло 1018.2 1000.1
12 17.02 З 2 н/о мгла ясно -4.0 -15.9 39 -7 -7 тепло 1019.3 1003.8
15 17.02 З 2 8000 м н/о -6.1 -17.2 41 -10 -10 тепло 1019.3 1000.8
18 17.02 ЮЗ 2 17 км н/о -7.0 -18.3 40 -11 -11 тепло 1019.4 1004.2 +2.6
21 17.02 Ю 2 16 км н/о -7.8 -17.7 45 -12 -12 тепло 1019.1 1000.5
00 18.02 ЮЗ 6 13 км ясно -5.8 -17.5 39 -13 -12 по сезону 1020.0 1004.7
03 18.02 ЮЗ 6 14 км ясно -0.8 -15.8 31 -7 -4 тепло 1020.0 1001.9
06 18.02 ЮЗ 5 6000 м мгла ?/? +2.9 -15.2 25 -1 -1 тепло 1018.3 1003.2 -8.0
09 18.02 З 2 7000 м ясно +1.0 -15.9 27 -1 -1 тепло 1018.6 1000.6
12 18.02 З 3 15 км ясно -1.2 -17.8 27 -5 -5 тепло 1019.0 1003.8
15 18.02 ЮЗ 3 11 км н/о -1.0 -17.2 28 -5 -5 тепло 1019.2 1001.1
18 18.02 ЮЗ 3 10 км н/о -1.1 -17.3 28 -5 -5 тепло 1018.8 1003.8 +3.2
21 18.02 Ю 1 9000 м н/о -2.2 -15.6 35 -3 -3 тепло 1017.7 999.5
00 19.02 В 1 3300 м мгла 10/10
[]
-3.8 -10.6 59 -6 -6 тепло 1018.8 1003.6
03 19.02 З 2 4700 м мгла 10/10
[]
+1.3 -12.8 34 -1 -1 тепло 1018.4 1000.4
06 19.02 Ю 1 н/о мгла 10/10
[]
+2.5 -11.8 34 +2 +2 тепло 1017.0 1002.0 -4.8
09 19.02 ЮЗ 1 н/о мгла 10/10
[]
+1.6 -12.9 33 +1 +1 тепло 1016.8 998.9
12 19.02 С 1 3700 м мгла 10/10
[]
-2.8 -9.3 61 -5 -5 тепло 1018.3 1003.1
15 19.02 штиль 0 1400 м мгла н/о -4.9 -9.0 73 -6 -6 тепло 1018.9 1000.5
18 19.02 З 2 1800 м мгла ?/? -4.4 -8.9 71 -8 -8 тепло 1019.5 1004.4 +2.8
21 19.02 З 2 1000 м дымка н/о -8.0 -10.1 85 -12 -12 по сезону 1019.9 1001.3
00 20.02 З 2 800 м дымка 10/10
[]
-6.8 -9.2 83 -11 -11 тепло 1022.0 1006.6
03 20.02 З 2 1200 м мгла 9/9
[]
0.0 -10.8 44 -3 -2 тепло 1022.3 1004.2
06 20.02 З 3 3100 м мгла 9/9
[]
+4.1 -14.7 24 +2 +2 тепло 1021.3 1006.2 -8.0
09 20.02 З 2 7000 м 9/9
[]
+1.1 -16.3 26 -1 -1 тепло 1022.3 1004.2
12 20.02 З 1 4100 м мгла ясно -3.8 -15.1 41 -5 -5 тепло 1023.6 1008.2
15 20.02 З 2 1500 м мгла н/о -4.7 -14.0 48 -8 -8 тепло 1023.8 1005.3
18 20.02 З 3 7000 м мгла ?/? -5.2 -14.8 47 -10 -10 тепло 1023.6 1008.5 +4.2
21 20.02 З 2 9000 м н/о -6.8 -15.7 49 -11 -11 тепло 1023.5 1004.9
00 21.02 ЮЗ 4 6000 м мгла 3/3
[]
-5.6 -15.6 45 -11 -11 тепло 1024.2 1008.8
03 21.02 ЮЗ 4 7000 м мгла 8/8
[]
-0.2 -14.2 34 -5 -4 тепло 1023.5 1005.3
06 21.02 З 4 8000 м 9/9
[]
+5.3 -14.2 23 +2 +3 тепло 1020.9 1005.8 -7.2
09 21.02 З 2 20 км 9/9
[]
+3.6 -14.1 26 +2 +2 тепло 1021.1 1003.2
12 21.02 З 1 1900 м мгла 9/9
[]
-1.9 -15.3 35 -3 -3 тепло 1021.9 1006.6
15 21.02 З 2 2000 м мгла н/о -3.9 -14.9 42 -7 -7 тепло 1021.8 1003.4
18 21.02 З 3 2400 м мгла ?/? -6.0 -14.7 50 -11 -11 тепло 1021.5 1006.4 +6.6
21 21.02 З 3 4500 м мгла н/о -8.5 -15.3 58 -14 -14 по сезону 1021.7 1003.0
00 22.02 З 3 3600 м мгла 3/3
[]
-4.6 -13.7 49 -9 -8 тепло 1022.9 1007.6
03 22.02 З 4 24 км ясно +4.6 -11.5 30 +1 +6 тепло 1023.0 1005.2
06 22.02 С 3 30 км 4/4 600 м
[]
+6.9 -12.3 24 +5 +7 тепло 1022.1 1007.0 -8.5
09 22.02 С 3 30 км 3/3 600 м
[]
+4.6 -13.3 26 +2 +2 тепло 1023.1 1005.3
12 22.02 С 2 2800 м мгла ясно 0.0 -12.0 40 -3 -3 тепло 1025.2 1009.9
15 22.02 СВ 1 12 км н/о -3.4 -13.9 44 -5 -5 тепло 1026.2 1007.8
18 22.02 З 1 4100 м мгла ?/? -6.9 -15.3 51 -9 -9 тепло 1026.4 1011.2 +7.1
21 22.02 З 2 3200 м мгла н/о -6.4 -14.4 53 -10 -10 тепло 1025.7 1007.1
00 23.02 З 1 3600 м мгла ясно -4.4 -10.8 61 -6 -4 тепло 1025.3 1010.0
03 23.02 ЮЗ 7 14 км ясно +6.5 -15.5 19 +3 +5 тепло 1021.6 1003.9

 

Местоположение метеостанции Харбин (Хэйлунцзян, Китай): широта 45.75 долгота 126.76 высота над уровнем моря 143 м.

В архиве по умолчанию представлена погода в Харбине за последнюю неделю. Архивные данные за месяц целиком и за предыдущие месяцы, начиная с января 2011 года, Вы можете получить, выбрав интересующий диапазон дат из раскрывающегося списка и нажав кнопку "Ввод!".


*Определитесь, кто Вы:
робот инопланетянин человек

Внимание! Время в таблицах - всемирное. Для получения местного времени необходимо прибавить поправку, которая равна 8 ч.

Смотрите также архив погоды в соседних городах и на ближайших метеорологических станциях:

Погода в Шанчжи (Хэйлунцзян, Китай) (111 км)
Погода в Аньда (Хэйлунцзян, Китай) (132 км)
Погода в Тунхэ (Хэйлунцзян, Китай) (155 км)
Погода в Цянь Горлос (Гирин, Китай) (166 км)
Погода в Хайлуне (Хэйлунцзян, Китай) (187 км)
Погода в Чанчуне (Гирин, Китай) (239 км)
Погода в Муданьцзяне (Хэйлунцзян, Китай) (259 км)
Погода в Кэшане (Хэйлунцзян, Китай) (264 км)
Погода в Тайлае (Хэйлунцзян, Китай) (268 км)
Погода в Ичунь (Хэйлунцзян, Китай) (273 км)

Пояснения к столбцам:

Ветер - указаны скорость ветра в м/с - средняя за 10 мин, порывы в срок и между сроками (в фигурных скобках) и направление, откуда дует ветер: С - северный, СВ - северо-восточный, В - восточный, ЮВ - юго-восточный, Ю - южный, ЮЗ - юго-западный, З - западный, СЗ - северо-западный.
Видимость - горизонтальная дальность видимости в метрах или километрах. При видимости от 1 до 10 км при отсутствии осадков обычно наблюдается дымка, при ухудшении видимости до 1 км и менее - туман. В сухую погоду видимость может ухудшаться дымом, пылью или мглою.
Явления - указаны атмосферные явления, наблюдавшиеся в срок или в последний час перед сроком; фигурными скобками обозначены явления, наблюдавшиеся между сроками (за 1-3 часа до срока); квадратными скобками обозначены град или гололедные отложения с указанием их диаметра в мм.
Облачность - указаны через наклонную черту общая и нижняя облачность в баллах и высота нижней границы облаков в метрах; квадратными скобками обозначены формы облаков: Ci - перистые, Cs - перисто-слоистые, Cc - перисто-кучевые, Ac - высококучевые, As - высокослоистые, Sc - слоисто-кучевые, Ns - слоисто-дождевые, Cu - кучевые, Cb - кучево-дождевые. Подробнее классификацию облаков см. в Атласе облаков (PDF).
T - Температура воздуха - температура, измеренная на высоте 2 м над землей.
Td - Температура точки росы - температура, при понижении до которой содержащийся в воздухе водяной пар достигнет насыщения.
f - Относительная влажность воздуха - влажноcть воздуха, измеренная на высоте 2 м над землей.
Te - Эффективная температура - температура, которую ощущает одетый по сезону человек в тени. Характеристика душности погоды. При расчете учитывается влияние влажности воздуха и скорости ветра на теплоощущения человека.
Tes - Эффективная температура на солнце - температура, которую ощущает человек, с поправкой на солнечный нагрев. Характеристика знойности погоды. Зависит от высоты солнца над горизонтом, облачности и скорости ветра. Ночью, в пасмурную погоду, а также при ветре 12 м/с и более поправка равна нулю.
P - Атмосферное давление - приведенное к уровню моря атмосферное давление.
Po - Атмосферное давление - измеренное на уровне метеостанции атмосферное давление.
Tmin - Минимальная температура - минимум температуры воздуха на высоте 2 м над землей.
Tmax - Максимальная температура - максимум температуры воздуха на высоте 2 м над землей.
R - Количество осадков - Количество выпавших осадков за период времени, мм. При наведении курсора мыши на число - период времени, за который выпало указанное количество осадков.
R24 - Количество осадков - Количество выпавших осадков за 24 часа, мм.
S - Снежный покров - Высота снежного покрова, см. При наведении курсора мыши на число - состояние снежного покрова и степень покрытия местности в баллах.